Back to catalog

STARLINK-30945

AliveCommunicationsVLEO
NORAD 58874·PAYLOAD·🇺🇸 United States

Launched Jan 29, 2024 from Cape Canaveral Space Force Station

Loading…

Next Passes (next 24 hours)

TLE

FreshSource: CelesTrak SupGP

Epoch: Sep 14, 2026, 13:50 UTC

1 58874C 24019X   26257.57687500  .00018372  00000+0  66547-3 0  2576
2 58874  43.0022 262.3493 0001640 276.2561 249.9823 15.27566294    19

Track STARLINK-30945 in real time with AllMySat

Download on the App Store